Time,TemperatureF,DewpointF,PressureIn,WindDirection,WindDirectionDegrees,WindSpeedMPH,WindSpeedGustMPH,Humidity,HourlyPrecipIn,Conditions,Clouds,dailyrainin,SolarRadiationWatts/m^2,SoftwareType,DateUTC
2013-07-29 00:04:00,73.5,72.0,30.05,South,180,0.0,1.0,94,0.00,,,0.00,0,weatherlink.com 1.10,2013-07-29 04:04:00,
2013-07-29 00:18:00,73.4,72.0,30.05,South,175,0.0,2.0,94,0.00,,,0.00,0,weatherlink.com 1.10,2013-07-29 04:18:00,
2013-07-29 00:34:00,73.2,71.0,30.05,SE,146,0.0,2.0,94,0.00,,,0.00,0,weatherlink.com 1.10,2013-07-29 04:34:00,
2013-07-29 00:48:00,72.9,71.0,30.05,SSE,159,0.0,2.0,95,0.00,,,0.00,0,weatherlink.com 1.10,2013-07-29 04:48:00,
2013-07-29 01:04:00,72.6,71.0,30.04,SSE,159,0.0,2.0,95,0.00,,,0.00,0,weatherlink.com 1.10,2013-07-29 05:04:00,
2013-07-29 01:18:00,72.5,71.0,30.04,SSE,160,0.0,3.0,95,0.00,,,0.00,0,weatherlink.com 1.10,2013-07-29 05:18:00,
2013-07-29 01:34:00,72.1,71.0,30.04,SSE,161,0.0,2.0,95,0.00,,,0.00,0,weatherlink.com 1.10,2013-07-29 05:34:00,
2013-07-29 01:48:00,72.2,71.0,30.04,SSE,150,0.0,2.0,96,0.00,,,0.00,0,weatherlink.com 1.10,2013-07-29 05:48:00,
2013-07-29 02:04:00,72.2,71.0,30.04,SSE,155,0.0,1.0,96,0.00,,,0.00,0,weatherlink.com 1.10,2013-07-29 06:04:00,
2013-07-29 02:18:00,72.1,71.0,30.03,South,175,0.0,2.0,96,0.00,,,0.00,0,weatherlink.com 1.10,2013-07-29 06:18:00,
2013-07-29 02:34:00,71.9,71.0,30.03,South,171,0.0,1.0,96,0.00,,,0.00,0,weatherlink.com 1.10,2013-07-29 06:34:00,
2013-07-29 02:49:00,71.7,71.0,30.03,South,171,0.0,0.0,96,0.00,,,0.00,0,weatherlink.com 1.10,2013-07-29 06:49:00,
2013-07-29 03:04:00,71.5,71.0,30.03,South,171,0.0,1.0,97,0.00,,,0.00,0,weatherlink.com 1.10,2013-07-29 07:04:00,
2013-07-29 03:19:00,71.4,71.0,30.02,South,171,0.0,1.0,97,0.00,,,0.00,0,weatherlink.com 1.10,2013-07-29 07:19:00,
2013-07-29 03:34:00,71.6,71.0,30.02,SSE,164,0.0,1.0,97,0.00,,,0.00,0,weatherlink.com 1.10,2013-07-29 07:34:00,
2013-07-29 03:49:00,71.4,71.0,30.02,SSE,164,0.0,0.0,97,0.00,,,0.00,0,weatherlink.com 1.10,2013-07-29 07:49:00,
2013-07-29 04:04:00,71.0,70.0,30.02,SSE,164,0.0,0.0,97,0.00,,,0.00,0,weatherlink.com 1.10,2013-07-29 08:04:00,
2013-07-29 04:19:00,70.8,70.0,30.03,SSE,164,0.0,0.0,97,0.00,,,0.00,0,weatherlink.com 1.10,2013-07-29 08:19:00,
2013-07-29 04:34:00,70.5,70.0,30.03,SSE,164,0.0,0.0,97,0.00,,,0.00,0,weatherlink.com 1.10,2013-07-29 08:34:00,
2013-07-29 04:49:00,70.6,70.0,30.03,SSE,164,0.0,0.0,98,0.00,,,0.00,0,weatherlink.com 1.10,2013-07-29 08:49:00,
2013-07-29 05:04:00,70.3,69.0,30.04,SSE,164,0.0,0.0,97,0.00,,,0.00,0,weatherlink.com 1.10,2013-07-29 09:04:00,
2013-07-29 05:19:00,70.4,70.0,30.04,SSE,164,0.0,0.0,98,0.00,,,0.00,0,weatherlink.com 1.10,2013-07-29 09:19:00,
2013-07-29 05:34:00,70.8,70.0,30.04,SSE,165,0.0,1.0,98,0.00,,,0.00,0,weatherlink.com 1.10,2013-07-29 09:34:00,
2013-07-29 05:49:00,71.0,70.0,30.05,SSE,165,0.0,1.0,98,0.00,,,0.00,0,weatherlink.com 1.10,2013-07-29 09:49:00,
2013-07-29 06:04:00,71.0,70.0,30.05,SSE,165,0.0,1.0,98,0.00,,,0.00,0,weatherlink.com 1.10,2013-07-29 10:04:00,
2013-07-29 06:35:00,70.3,69.0,30.06,SSE,165,0.0,0.0,97,0.00,,,0.00,0,weatherlink.com 1.10,2013-07-29 10:35:00,
2013-07-29 06:50:00,69.8,69.0,30.07,SSE,165,0.0,0.0,98,0.00,,,0.00,7,weatherlink.com 1.10,2013-07-29 10:50:00,
2013-07-29 07:05:00,69.5,69.0,30.07,SSE,165,0.0,0.0,98,0.00,,,0.00,18,weatherlink.com 1.10,2013-07-29 11:05:00,
2013-07-29 07:20:00,70.0,69.0,30.08,SSE,165,0.0,0.0,98,0.00,,,0.00,46,weatherlink.com 1.10,2013-07-29 11:20:00,
2013-07-29 07:35:00,70.7,70.0,30.08,SSE,165,0.0,0.0,98,0.00,,,0.00,79,weatherlink.com 1.10,2013-07-29 11:35:00,
2013-07-29 07:50:00,71.9,71.0,30.08,SSE,165,0.0,0.0,98,0.00,,,0.00,128,weatherlink.com 1.10,2013-07-29 11:50:00,
2013-07-29 08:05:00,73.3,73.0,30.09,SSE,165,1.0,1.0,99,0.00,,,0.00,179,weatherlink.com 1.10,2013-07-29 12:05:00,
2013-07-29 08:20:00,74.6,74.0,30.09,WSW,241,1.0,4.0,98,0.00,,,0.00,232,weatherlink.com 1.10,2013-07-29 12:20:00,
2013-07-29 08:35:00,76.1,75.0,30.09,SW,223,0.0,2.0,97,0.00,,,0.00,295,weatherlink.com 1.10,2013-07-29 12:35:00,
2013-07-29 09:06:00,79.6,77.0,30.09,SSW,205,0.0,3.0,90,0.00,,,0.00,410,weatherlink.com 1.10,2013-07-29 13:06:00,
2013-07-29 09:21:00,81.4,77.0,30.10,WSW,246,1.0,4.0,86,0.00,,,0.00,461,weatherlink.com 1.10,2013-07-29 13:21:00,
2013-07-29 09:36:00,82.2,77.0,30.10,West,260,2.0,4.0,83,0.00,,,0.00,517,weatherlink.com 1.10,2013-07-29 13:36:00,
2013-07-29 10:36:00,84.1,75.0,30.11,North,351,3.0,6.0,74,0.00,,,0.00,749,weatherlink.com 1.10,2013-07-29 14:36:00,
2013-07-29 10:51:00,84.2,75.0,30.12,South,169,1.0,5.0,74,0.00,,,0.00,202,weatherlink.com 1.10,2013-07-29 14:51:00,
2013-07-29 11:08:00,85.1,74.0,30.12,North,355,1.0,5.0,70,0.00,,,0.00,805,weatherlink.com 1.10,2013-07-29 15:08:00,
2013-07-29 11:21:00,86.1,75.0,30.12,SW,234,4.0,8.0,69,0.00,,,0.00,882,weatherlink.com 1.10,2013-07-29 15:21:00,
2013-07-29 11:37:00,86.1,75.0,30.12,NNW,345,4.0,6.0,69,0.00,,,0.00,234,weatherlink.com 1.10,2013-07-29 15:37:00,
2013-07-29 11:51:00,85.7,73.0,30.11,SSW,201,2.0,5.0,66,0.00,,,0.00,947,weatherlink.com 1.10,2013-07-29 15:51:00,
2013-07-29 12:07:00,87.5,73.0,30.11,SSE,153,2.0,7.0,63,0.00,,,0.00,970,weatherlink.com 1.10,2013-07-29 16:07:00,
2013-07-29 12:22:00,88.6,74.0,30.10,ESE,117,3.0,4.0,62,0.00,,,0.00,981,weatherlink.com 1.10,2013-07-29 16:22:00,
2013-07-29 12:37:00,89.8,74.0,30.10,South,184,4.0,5.0,60,0.00,,,0.00,969,weatherlink.com 1.10,2013-07-29 16:37:00,
2013-07-29 12:52:00,90.4,73.0,30.10,SW,233,6.0,7.0,57,0.00,,,0.00,998,weatherlink.com 1.10,2013-07-29 16:52:00,
2013-07-29 13:07:00,89.9,72.0,30.10,South,173,0.0,4.0,56,0.00,,,0.00,1072,weatherlink.com 1.10,2013-07-29 17:07:00,
2013-07-29 13:37:00,90.9,73.0,30.10,WSW,255,2.0,8.0,56,0.00,,,0.00,1055,weatherlink.com 1.10,2013-07-29 17:37:00,
2013-07-29 13:54:00,90.8,72.0,30.09,South,188,1.0,7.0,55,0.00,,,0.00,1055,weatherlink.com 1.10,2013-07-29 17:54:00,
2013-07-29 14:07:00,92.0,72.0,30.09,NE,53,2.0,6.0,53,0.00,,,0.00,1069,weatherlink.com 1.10,2013-07-29 18:07:00,
2013-07-29 14:22:00,91.8,72.0,30.08,SSW,209,0.0,9.0,53,0.00,,,0.00,1016,weatherlink.com 1.10,2013-07-29 18:22:00,
2013-07-29 14:38:00,92.6,72.0,30.08,West,259,1.0,4.0,52,0.00,,,0.00,998,weatherlink.com 1.10,2013-07-29 18:38:00,
2013-07-29 14:54:00,92.8,73.0,30.07,SW,230,2.0,3.0,52,0.00,,,0.00,1056,weatherlink.com 1.10,2013-07-29 18:54:00,
2013-07-29 15:08:00,93.5,72.0,30.07,WSW,246,3.0,5.0,50,0.00,,,0.00,1025,weatherlink.com 1.10,2013-07-29 19:08:00,
2013-07-29 15:24:00,93.2,72.0,30.07,SSW,213,2.0,5.0,50,0.00,,,0.00,930,weatherlink.com 1.10,2013-07-29 19:24:00,
2013-07-29 15:38:00,93.3,73.0,30.06,ENE,77,2.0,5.0,52,0.00,,,0.00,953,weatherlink.com 1.10,2013-07-29 19:38:00,
2013-07-29 15:54:00,94.3,72.0,30.06,SSE,155,3.0,5.0,48,0.00,,,0.00,868,weatherlink.com 1.10,2013-07-29 19:54:00,
2013-07-29 16:08:00,94.2,72.0,30.05,SW,236,6.0,6.0,49,0.00,,,0.00,860,weatherlink.com 1.10,2013-07-29 20:08:00,
2013-07-29 16:24:00,93.0,72.0,30.05,SSW,194,2.0,9.0,50,0.00,,,0.00,784,weatherlink.com 1.10,2013-07-29 20:24:00,
2013-07-29 17:08:00,93.2,72.0,30.05,SSE,157,0.0,4.0,50,0.00,,,0.00,174,weatherlink.com 1.10,2013-07-29 21:08:00,
2013-07-29 17:24:00,94.0,72.0,30.04,NW,319,2.0,6.0,49,0.00,,,0.00,649,weatherlink.com 1.10,2013-07-29 21:24:00,
2013-07-29 17:54:00,94.6,72.0,30.04,South,172,2.0,4.0,48,0.00,,,0.00,571,weatherlink.com 1.10,2013-07-29 21:54:00,
2013-07-29 18:09:00,94.0,73.0,30.05,SSE,162,2.0,7.0,51,0.00,,,0.00,492,weatherlink.com 1.10,2013-07-29 22:09:00,
2013-07-29 18:24:00,93.6,73.0,30.04,SSE,168,1.0,4.0,52,0.00,,,0.00,410,weatherlink.com 1.10,2013-07-29 22:24:00,
2013-07-29 18:39:00,92.7,73.0,30.04,ESE,118,0.0,4.0,53,0.00,,,0.00,301,weatherlink.com 1.10,2013-07-29 22:39:00,
2013-07-29 18:54:00,92.4,73.0,30.04,SSE,163,2.0,4.0,53,0.00,,,0.00,237,weatherlink.com 1.10,2013-07-29 22:54:00,
2013-07-29 19:09:00,91.6,73.0,30.05,SSE,157,0.0,4.0,54,0.00,,,0.00,107,weatherlink.com 1.10,2013-07-29 23:09:00,
2013-07-29 19:24:00,90.1,76.0,30.06,SSE,148,3.0,8.0,63,0.00,,,0.00,51,weatherlink.com 1.10,2013-07-29 23:24:00,
2013-07-29 19:39:00,87.9,76.0,30.07,South,170,0.0,6.0,67,0.00,,,0.00,23,weatherlink.com 1.10,2013-07-29 23:39:00,
2013-07-29 19:54:00,86.7,76.0,30.08,SSE,149,0.0,5.0,70,0.00,,,0.00,21,weatherlink.com 1.10,2013-07-29 23:54:00,
2013-07-29 20:09:00,85.9,76.0,30.08,SSE,167,2.0,3.0,72,0.00,,,0.00,9,weatherlink.com 1.10,2013-07-30 00:09:00,
2013-07-29 20:24:00,85.1,76.0,30.09,SW,231,3.0,6.0,74,0.00,,,0.00,0,weatherlink.com 1.10,2013-07-30 00:24:00,
2013-07-29 20:39:00,85.0,76.0,30.10,SSW,208,1.0,4.0,74,0.00,,,0.00,0,weatherlink.com 1.10,2013-07-30 00:39:00,
2013-07-29 20:54:00,84.1,75.0,30.10,SSW,205,4.0,9.0,75,0.00,,,0.00,0,weatherlink.com 1.10,2013-07-30 00:54:00,
2013-07-29 21:09:00,82.9,74.0,30.11,SW,233,2.0,7.0,75,0.00,,,0.00,0,weatherlink.com 1.10,2013-07-30 01:09:00,
2013-07-29 21:24:00,82.2,75.0,30.11,SW,226,3.0,5.0,78,0.00,,,0.00,0,weatherlink.com 1.10,2013-07-30 01:24:00,
2013-07-29 21:39:00,81.0,74.0,30.11,SW,234,2.0,5.0,78,0.00,,,0.00,0,weatherlink.com 1.10,2013-07-30 01:39:00,
2013-07-29 21:54:00,80.4,73.0,30.12,SW,221,0.0,3.0,78,0.00,,,0.00,0,weatherlink.com 1.10,2013-07-30 01:54:00,
2013-07-29 22:09:00,80.2,74.0,30.13,SSW,209,0.0,4.0,81,0.00,,,0.00,0,weatherlink.com 1.10,2013-07-30 02:09:00,
2013-07-29 22:25:00,79.8,74.0,30.14,South,173,0.0,1.0,82,0.00,,,0.00,0,weatherlink.com 1.10,2013-07-30 02:25:00,
2013-07-29 22:39:00,79.6,74.0,30.14,South,173,0.0,0.0,83,0.00,,,0.00,0,weatherlink.com 1.10,2013-07-30 02:39:00,
2013-07-29 22:55:00,79.2,74.0,30.14,South,173,0.0,0.0,84,0.00,,,0.00,0,weatherlink.com 1.10,2013-07-30 02:55:00,
2013-07-29 23:10:00,79.0,74.0,30.14,South,169,0.0,0.0,84,0.00,,,0.00,0,weatherlink.com 1.10,2013-07-30 03:10:00,
2013-07-29 23:25:00,78.9,74.0,30.14,South,169,0.0,0.0,85,0.00,,,0.00,0,weatherlink.com 1.10,2013-07-30 03:25:00,
2013-07-29 23:40:00,78.9,74.0,30.14,South,169,0.0,1.0,86,0.00,,,0.00,0,weatherlink.com 1.10,2013-07-30 03:40:00,
2013-07-29 23:55:00,78.5,74.0,30.13,South,169,0.0,0.0,86,0.00,,,0.00,0,weatherlink.com 1.10,2013-07-30 03:55:00,